Regional Weather Roundup
Issued by NWS

Home | Current Version | Previous Version | Graphics & Text | Print | Product List | Glossary On
Versions: 1 2 3 4 5 6 7 8 9 10 11 12 13 14 15 16 17 18 19 20 21 22 23 24 25 26 27 28 29 30 31 32 33 34 35 36 37 38 39 40 41 42 43 44 45 46 47 48 49 50
000
ASUS43 KDTX 231201
RWRMI
MICHIGAN HOURLY REGIONAL WEATHER ROUNDUP
NATIONAL WEATHER SERVICE DETROIT/PONTIAC MI
800 AM EDT SUN JUL 23 2017

NOTE: "FAIR" INDICATES FEW OR NO CLOUDS BELOW 12,000 FEET WITH NO
SIGNIFICANT WEATHER AND/OR OBSTRUCTION TO VISIBILITY.

MIZ047>049-052>055-059>063-066>070-074>076-081>083-231300-
SOUTHEAST LOWER MICHIGAN

CITY           SKY/WX    TMP DP  RH WIND       PRES   REMARKS
ADRIAN         CLOUDY    68  65  90 CALM      29.82S
6HR MIN TEMP:  66; 6HR MAX TEMP:  71;

ALMA           CLOUDY    66  65  97 W7        29.81R FOG
ANN ARBOR      CLOUDY    71  67  87 VRB5      29.80S
BAD AXE        CLOUDY    66  66 100 CALM      29.80R FOG
6HR MIN TEMP:  64; 6HR MAX TEMP:  66;

DETROIT CITY   CLOUDY    71  66  84 NW5       29.79R
6HR MIN TEMP:  71; 6HR MAX TEMP:  73;

DETROIT        CLOUDY    71  66  84 W7        29.80S
6HR MIN TEMP:  70; 6HR MAX TEMP:  72;

FLINT          FOG       66  65  96 S5        29.79F VSB 1
6HR MIN TEMP:  65; 6HR MAX TEMP:  68;

GROSSE ILE     CLOUDY    70  67  88 W3        29.78S
6HR MIN TEMP:  68; 6HR MAX TEMP:  73;

HILLSDALE      FOG       68  64  88 CALM      29.82F VSB 1/4
HOWELL         CLOUDY    67  64  93 CALM      29.80S
6HR MIN TEMP:  65; 6HR MAX TEMP:  69;


CITY           SKY/WX    TMP DP  RH WIND       PRES   REMARKS
JACKSON        LGT RAIN  68  65  90 W5        29.82R
6HR MIN TEMP:  67; 6HR MAX TEMP:  72; 6HR PCP: TRACE;

LAMBERTVILLE   MOSUNNY   68  67  96 NW3       29.80S
6HR MIN TEMP:  65; 6HR MAX TEMP:  70;

LANSING        MOSUNNY   68  64  87 S6        29.80S
6HR MIN TEMP:  65; 6HR MAX TEMP:  68;

LAPEER         CLOUDY    67  65  93 CALM      29.79F
6HR MIN TEMP:  66; 6HR MAX TEMP:  68;

MASON          SUNNY     67  66  96 SE5       29.80S
MONROE         MOSUNNY   68  67  96 W5        29.79S
6HR MIN TEMP:  65; 6HR MAX TEMP:  71;

PONTIAC        CLOUDY    68  66  93 W3        29.79S
6HR MIN TEMP:  67; 6HR MAX TEMP:  70;

PORT HOPE        N/A     69  66  90 CALM      29.77F
6HR MIN TEMP:  67; 6HR MAX TEMP:  70;

PORT HURON     MOSUNNY   68  66  94 CALM      29.79S FOG
TRI CITIES     CLOUDY    67  67 100 SW3       29.80R FOG
6HR MIN TEMP:  64; 6HR MAX TEMP:  67; 6HR PCP:  0.01;

MIDLAND        CLOUDY    66  66  97 N3        29.79R
6HR MIN TEMP:  62; 6HR MAX TEMP:  66;

TROY           CLOUDY    70  65  84 NW5       29.81S
SAGINAW HB     LGT RAIN  66  64  94 E5        29.78R
$$
MIZ043>046-050>051-056>058-064>065-071>073-077>080-231300-
SOUTHWEST LOWER MICHIGAN

CITY           SKY/WX    TMP DP  RH WIND       PRES   REMARKS
BATTLE CREEK   CLOUDY    70  68  93 S5        29.83R
6HR MIN TEMP:  68; 6HR MAX TEMP:  71;

BENTON HARBOR  MOSUNNY   70  68  93 CALM      29.80F FOG
6HR MIN TEMP:  66; 6HR MAX TEMP:  70;

BIG RAPIDS     CLOUDY    67  65  93 CALM      29.80R
6HR MIN TEMP:  66; 6HR MAX TEMP:  68; 6HR PCP:  0.13;

COLDWATER      FOG       68  68 100 CALM      29.82F VSB 1/4
6HR MIN TEMP:  65; 6HR MAX TEMP:  69;

FREMONT        FAIR      66  66 100 W3        29.79R
HOLLAND        CLOUDY    68  66  93 SW5       29.82R FOG
6HR MIN TEMP:  67; 6HR MAX TEMP:  68;

GRAND RAPIDS   CLOUDY    71  69  93 W9        29.81R FOG
6HR MIN TEMP:  68; 6HR MAX TEMP:  71;

IONIA          CLOUDY    68  67  96 SW8       29.81R FOG
6HR MIN TEMP:  66; 6HR MAX TEMP:  68;

KALAMAZOO      FOG       69  66  90 S5        29.82S VSB 3/4
6HR MIN TEMP:  68; 6HR MAX TEMP:  69;

LUDINGTON      CLOUDY    67  67  98 S7        29.78R
6HR MIN TEMP:  63; 6HR MAX TEMP:  67; 6HR PCP:  0.49;

MARSHALL       CLOUDY    67  67  98 S3        29.81F FOG
6HR MIN TEMP:  65; 6HR MAX TEMP:  70;

MUSKEGON       CLOUDY    69  68  96 S8        29.78S
6HR MIN TEMP:  67; 6HR MAX TEMP:  69; 6HR PCP:  0.15;

SOUTH HAVEN    CLOUDY    67  67  99 N3        29.82R FOG
$$
MIZ016>042-231300-
NORTHERN LOWER MICHIGAN

CITY           SKY/WX    TMP DP  RH WIND       PRES   REMARKS
ALPENA         CLOUDY    67  63  87 E8        29.79F
6HR MIN TEMP:  63; 6HR MAX TEMP:  67;

BEAVER ISLAND  MOSUNNY   69  67  93 SW3       29.75S
6HR MIN TEMP:  67; 6HR MAX TEMP:  69;

BELLAIRE       CLOUDY    68  62  79 CALM      29.77R
6HR MIN TEMP:  65; 6HR MAX TEMP:  69;

CADILLAC       CLOUDY    67  64  90 E6        29.79F FOG
CHARLEVOIX     CLOUDY    68  65  92 SE3       29.80R
6HR MIN TEMP:  67; 6HR MAX TEMP:  69;

FRANKFORT      CLOUDY    69  68  98 CALM      29.77S
GAYLORD        CLOUDY    65  61  87 S5        29.80R
6HR MIN TEMP:  64; 6HR MAX TEMP:  66; 6HR PCP:  0.01;

GRAYLING       CLOUDY    64  60  87 CALM      29.81R
6HR MIN TEMP:  62; 6HR MAX TEMP:  64;

HARBOR SPRINGS CLOUDY    65  64  95 E3        29.77R
HOUGHTON LAKE  CLOUDY    66  63  90 S5        29.81R
6HR MIN TEMP:  61; 6HR MAX TEMP:  66;

MANISTEE       CLOUDY    65  65 100 CALM      29.77S
OSCODA         PTSUNNY   65  64  95 CALM      29.78S
6HR MIN TEMP:  63; 6HR MAX TEMP:  67;

PELLSTON       CLOUDY    66  63  90 SE9       29.78R
6HR MIN TEMP:  62; 6HR MAX TEMP:  67; 6HR PCP: TRACE;

ROGERS CITY    CLOUDY    65  59  81 SE6       29.80R
TRAVERSE CITY  MOSUNNY   71  66  84 CALM      29.75S
6HR MIN TEMP:  68; 6HR MAX TEMP:  71; 6HR PCP:  0.02;

$$
MIZ007>008-015-231300-
EASTERN UPPER MICHIGAN

CITY           SKY/WX    TMP DP  RH WIND       PRES   REMARKS
KINROSS        LGT RAIN  64  58  80 SE10      29.79R
6HR MIN TEMP:  64; 6HR MAX TEMP:  67;

MACKINAC ISLAN LGT RAIN  64  63  94 SE9G16    29.77S
6HR MIN TEMP:  64; 6HR MAX TEMP:  67;

NEWBERRY       LGT RAIN  64  63  97 N5        29.76R
6HR MIN TEMP:  64; 6HR MAX TEMP:  65; 6HR PCP:  0.25;

S. S. MARIE    LGT RAIN  62  56  80 N6        29.82R
6HR MIN TEMP:  62; 6HR MAX TEMP:  67; 6HR PCP:  0.01;

MUNISING         N/A     60  59  96 NW5       29.76S
6HR MIN TEMP:  60; 6HR MAX TEMP:  67;

$$
MIZ004>006-011>014-085-231300-
CENTRAL UPPER MICHIGAN

CITY           SKY/WX    TMP DP  RH WIND       PRES   REMARKS
MANISTIQUE     PTSUNNY   65  62  89 NW5       29.75S
6HR MIN TEMP:  61; 6HR MAX TEMP:  65;

ESCANABA       CLOUDY    65  64  97 N3        29.74F
6HR MIN TEMP:  59; 6HR MAX TEMP:  65;

MENOMINEE      FOG       65  65 100 CALM      29.76S VSB 1/4
6HR MIN TEMP:  63; 6HR MAX TEMP:  68;

SAWYER-GWINN   CLOUDY    61  59  94 NW3       29.79R THUNDER FOG
$$
MIZ001>003-009>011-084-231300-
WESTERN UPPER MICHIGAN

CITY           SKY/WX    TMP DP  RH WIND       PRES   REMARKS
IRON MOUNTAIN  CLOUDY    65  61  87 NW10      29.77R
6HR MIN TEMP:  61; 6HR MAX TEMP:  67;

HOUGHTON       CLOUDY    58  56  93 W6        29.82R
6HR MIN TEMP:  56; 6HR MAX TEMP:  58; 6HR PCP:  0.01;

COPPER HARBOR    N/A     54  52  93 N5        29.82R
6HR MIN TEMP:  52; 6HR MAX TEMP:  56;

IRONWOOD       FOG       54  54 100 W5        29.86R VSB<1/4
6HR MIN TEMP:  54; 6HR MAX TEMP:  59; 6HR PCP: TRACE;

$$

ABBREVIATIONS USED IN REMARKS
   TC - TEMPERATURE IN CELSIUS
  WCI - WIND CHILL INDEX
   HX - HEAT INDEX
  VSB - VISIBILITY





USA.gov is the U.S. government's official web portal to all federal, state and local government web resources and services.